Total_Precipitation_Accumulation
1.48 1.46 1.32 1.22 1.14 1.11 1.08 1.05 0.94 0.85 0.76 0.69 0.64 0.60 0.56 0.51 0.48 0.48 0.49 0.49 0.60 0.88 1.18 1.35 1.47 1.48 1.47 1.50 1.55 1.52 1.40 1.21 1.07 0.92 0.83 0.77 0.71 0.68 0.72 0.74 0.73 0.68 0.65
1.67 1.60 1.51 1.44 1.32 1.24 1.20 1.17 1.06 1.09 1.07 0.96 0.83 0.73 0.65 0.59 0.54 0.49 0.47 0.49 0.56 0.67 0.93 1.23 1.41 1.52 1.67 1.77 1.78 1.69 1.58 1.45 1.33 1.20 1.01 0.91 0.84 0.81 0.85 0.84 0.79 0.75 0.70
1.80 1.73 1.70 1.58 1.40 1.35 1.37 1.36 1.31 1.28 1.24 1.13 1.00 0.93 0.85 0.77 0.69 0.62 0.57 0.54 0.57 0.63 0.80 1.06 1.28 1.46 1.71 1.97 2.12 2.06 1.83 1.62 1.46 1.34 1.23 1.11 1.01 0.92 0.95 0.98 0.96 0.92 0.85
1.84 1.84 1.80 1.77 1.62 1.57 1.58 1.54 1.46 1.41 1.31 1.22 1.12 1.06 0.99 0.94 0.87 0.86 0.81 0.71 0.67 0.63 0.74 0.99 1.17 1.37 1.63 1.90 2.22 2.34 2.16 1.86 1.58 1.43 1.33 1.26 1.21 1.18 1.14 1.12 1.12 1.06 1.00
1.94 1.90 1.77 1.75 1.79 1.70 1.65 1.67 1.62 1.53 1.45 1.40 1.34 1.24 1.15 1.08 1.00 0.98 1.00 0.94 0.88 0.81 0.77 0.89 1.03 1.15 1.41 1.70 1.96 2.28 2.31 2.09 1.81 1.59 1.48 1.42 1.42 1.42 1.36 1.27 1.22 1.18 1.14
1.95 1.91 1.79 1.80 1.86 1.81 1.67 1.61 1.58 1.57 1.51 1.55 1.55 1.44 1.35 1.26 1.20 1.12 1.07 1.06 1.03 0.97 0.90 0.86 0.87 0.94 1.14 1.44 1.70 2.03 2.29 2.28 2.10 1.87 1.67 1.59 1.56 1.56 1.54 1.51 1.46 1.36 1.32
2.00 2.01 1.92 1.91 1.93 1.87 1.78 1.79 1.81 1.73 1.63 1.63 1.64 1.50 1.40 1.37 1.26 1.20 1.14 1.04 0.99 0.99 1.00 0.96 0.88 0.85 0.91 1.17 1.43 1.71 2.12 2.42 2.43 2.28 2.03 1.85 1.76 1.70 1.72 1.78 1.76 1.67 1.57
2.22 2.14 2.14 2.16 2.12 2.03 1.96 1.91 1.93 1.92 1.81 1.77 1.78 1.75 1.58 1.53 1.36 1.15 1.11 1.03 0.99 0.98 0.98 1.04 1.02 0.92 0.84 0.89 1.07 1.33 1.68 2.15 2.57 2.77 2.69 2.44 2.25 2.08 2.02 2.04 2.04 1.98 1.89
2.43 2.32 2.25 2.32 2.31 2.19 2.09 2.02 1.97 1.94 1.98 1.95 1.87 1.97 1.75 1.47 1.33 1.22 1.11 1.05 1.03 1.04 1.02 1.05 1.07 1.03 0.94 0.86 0.87 1.03 1.28 1.68 2.19 2.69 3.00 2.98 2.78 2.58 2.52 2.50 2.47 2.41 2.29
2.49 2.47 2.43 2.40 2.42 2.38 2.22 2.14 2.09 2.06 2.08 2.07 1.99 1.81 1.70 1.48 1.41 1.29 1.17 1.15 1.12 1.06 1.04 1.04 1.07 1.09 1.09 1.05 1.03 1.05 1.11 1.30 1.73 2.23 2.67 2.89 2.93 2.84 2.80 2.79 2.84 2.89 2.82
2.47 2.44 2.40 2.33 2.29 2.31 2.35 2.32 2.17 2.12 2.07 1.96 1.90 1.78 1.68 1.48 1.31 1.32 1.18 1.09 1.12 1.08 1.03 1.01 1.06 1.11 1.13 1.12 1.08 1.15 1.24 1.28 1.54 1.98 2.49 2.80 3.01 3.16 3.18 3.10 3.00 2.95 2.94
2.46 2.42 2.42 2.31 2.19 2.13 2.13 2.24 2.26 2.15 2.08 1.98 1.87 1.80 1.72 1.62 1.44 1.41 1.36 1.15 1.11 1.09 1.07 1.05 1.02 1.05 1.09 1.13 1.16 1.37 1.36 1.43 1.63 1.97 2.44 2.90 3.11 3.21 3.34 3.38 3.32 3.19 3.02
2.26 2.27 2.31 2.31 2.23 2.16 2.19 2.20 2.26 2.20 2.11 2.01 1.90 1.83 1.78 1.67 1.52 1.54 1.61 1.48 1.28 1.11 1.08 1.09 1.08 1.10 1.13 1.21 1.32 1.57 1.54 1.62 1.75 2.01 2.40 2.78 2.95 2.98 3.05 3.22 3.39 3.44 3.40
2.12 2.14 2.14 2.13 2.16 2.12 2.11 2.13 2.15 2.19 2.18 2.09 1.95 1.82 1.74 1.64 1.61 1.67 1.74 1.85 1.77 1.45 1.24 1.16 1.13 1.20 1.30 1.40 1.61 1.77 1.60 1.79 1.89 2.08 2.35 2.63 2.63 2.61 2.59 2.72 2.98 3.21 3.29
1.98 2.00 2.03 1.95 1.94 1.97 1.98 2.00 1.98 1.91 1.98 2.00 1.92 1.85 1.74 1.63 1.65 1.70 1.79 1.98 2.23 2.11 1.68 1.34 1.32 1.35 1.41 1.55 1.84 1.73 1.60 1.89 1.94 1.96 2.05 2.12 2.07 2.09 2.20 2.27 2.36 2.51 2.63
1.66 1.74 1.80 1.81 1.80 1.85 1.88 1.87 1.81 1.73 1.71 1.69 1.70 1.74 1.72 1.63 1.62 1.65 1.75 1.87 2.05 2.18 1.98 1.47 1.30 1.36 1.49 1.59 1.86 1.73 1.65 1.87 1.81 1.85 1.84 1.84 1.78 1.78 1.84 1.94 1.95 1.97 2.03
1.40 1.49 1.59 1.68 1.70 1.73 1.77 1.78 1.70 1.67 1.62 1.54 1.53 1.58 1.58 1.52 1.58 1.59 1.63 1.75 1.88 2.05 2.09 1.68 1.43 1.43 1.56 1.59 1.61 1.53 1.48 1.49 1.47 1.65 1.59 1.58 1.58 1.55 1.55 1.65 1.74 1.75 1.75
1.25 1.31 1.31 1.34 1.43 1.51 1.59 1.66 1.63 1.58 1.54 1.47 1.41 1.46 1.49 1.50 1.55 1.57 1.63 1.70 1.74 1.82 1.92 1.79 1.52 1.42 1.40 1.37 1.33 1.32 1.29 1.24 1.19 1.42 1.40 1.37 1.37 1.33 1.29 1.31 1.45 1.56 1.55
1.07 1.15 1.17 1.16 1.17 1.21 1.30 1.41 1.49 1.51 1.47 1.42 1.43 1.43 1.44 1.52 1.57 1.58 1.63 1.68 1.65 1.61 1.59 1.58 1.41 1.25 1.22 1.22 1.27 1.22 1.20 1.20 1.09 1.22 1.31 1.29 1.28 1.22 1.16 1.16 1.22 1.32 1.38
0.78 0.85 0.92 0.97 1.04 1.08 1.11 1.16 1.24 1.35 1.41 1.43 1.46 1.48 1.47 1.55 1.64 1.67 1.68 1.65 1.61 1.56 1.48 1.45 1.37 1.25 1.19 1.15 1.23 1.25 1.23 1.21 1.15 1.03 1.18 1.22 1.23 1.22 1.15 1.07 1.04 1.04 1.13
0.60 0.64 0.73 0.78 0.87 0.95 1.01 1.06 1.10 1.19 1.25 1.31 1.39 1.47 1.51 1.62 1.69 1.66 1.55 1.45 1.41 1.41 1.37 1.35 1.29 1.20 1.15 1.14 1.16 1.09 1.07 1.09 1.13 1.06 1.07 1.10 1.09 1.05 1.03 1.05 1.04 1.03 1.06
0.59 0.62 0.67 0.71 0.78 0.85 1.07 1.13 1.09 1.09 1.15 1.21 1.25 1.30 1.37 1.45 1.38 1.39 1.36 1.30 1.34 1.42 1.40 1.29 1.16 1.03 0.90 0.88 0.90 0.99 1.07 1.19 1.24 1.04 1.01 1.06 1.04 1.08 0.98 0.94 1.06 1.04 1.04
0.64 0.67 0.69 0.72 0.75 0.86 1.04 1.09 1.21 1.14 1.13 1.14 1.13 1.14 1.12 1.07 1.09 0.97 1.03 1.05 1.06 1.13 1.14 1.11 1.09 0.89 0.77 0.75 0.92 1.06 1.08 1.08 1.00 0.87 0.98 1.15 1.08 1.06 0.93 0.91 1.06 1.04 1.03
0.81 0.83 0.82 0.84 0.88 0.98 1.10 1.09 1.14 1.07 1.00 0.95 0.91 0.90 0.91 0.87 0.88 0.93 0.94 0.93 0.82 0.76 0.75 0.73 0.73 0.69 0.71 0.80 0.99 1.17 1.21 1.20 1.06 0.94 0.99 1.22 1.11 1.04 0.94 0.89 0.98 0.98 1.01
1.06 1.06 1.05 1.03 1.02 1.03 1.05 0.96 0.94 0.89 0.84 0.77 0.72 0.72 0.76 0.75 0.85 1.01 1.01 0.94 0.83 0.74 0.74 0.79 0.82 0.82 0.90 0.99 1.09 1.28 1.45 1.60 1.48 1.15 0.99 1.07 1.01 0.98 1.01 0.98 1.00 1.05 1.01
1.02 0.99 0.98 0.95 0.88 0.82 0.82 0.78 0.76 0.72 0.70 0.62 0.60 0.63 0.74 0.78 0.92 1.08 1.06 1.01 0.94 0.79 0.75 0.79 0.79 0.78 0.77 0.83 0.96 1.00 1.17 1.54 1.56 1.30 0.92 0.97 1.00 1.13 1.39 1.11 1.01 1.05 1.05